weather.gov     
National Weather Service

Miscellaneous Local Product
NWS Homepage
This page is being discontinued on March 12, 2014.
The same data is available at this site. Please update your bookmarks.
Thank you, and we apologize for the inconvenience.
Please send an email to SR-SRH.Webmaster@noaa.gov with any concerns.


Current Version
Previous Version:    01  02  03  04  05  06  07  08  09  10  11  12  13  14  15  16  17  18  19  20  21  22  23  24  25  26  27  28  29  30  
   31  32  33  34  35  36  37  38  39  40  41  42  43  44  45  46  47  48  49  50  51  52  53  54  55  56  57  58  59  60  
[Printable]
016
AXUS43 KLBF 240610
MISLBF


WESTERN AND NORTH CENTRAL NEBRASKA HOURLY WEATHER ROUNDUP
NATIONAL WEATHER SERVICE NORTH PLATTE NE
100 AM CDT THU APR 24 2014

***STATIONS NOT REPORTING VARIABLES SUCH AS SKY/WEATHER OR
PRESSURE ARE PROVIDED BY THE NEBRASKA DEPARTMENT OF
ROADS...RAWS...AND APRS NETWORKS...AND ARE NOT UNDER
NATIONAL WEATHER SERVICE QUALITY CONTROL***

...OBSERVATIONS IN AND NEAR THE EASTERN PANHANDLE OF NEBRASKA...

CITY           SKY/WX    TMP DP  RH WIND       PRES   REMARKS
PINE RIDGE     CLOUDY    46  35  65 CALM      29.86R
CHADRON        CLOUDY    45  40  82 SE3       29.87R
ALLIANCE       CLOUDY    47  38  71 NE7       29.85R
SIDNEY         CLOUDY    51  25  36 N21G31    29.85R
WHITECLAY        N/A     43  33  68 W3          N/A
CRESCENT LAKE    N/A     48  35  61 N13G23      N/A
LISCO            N/A     52  34  50 NW17        N/A
BIG SPRINGS      N/A     54  33  45 NW12        N/A
LEWELLEN         N/A     52  29  41 E16         N/A
$$

...OBSERVATIONS IN SOUTHWEST NEBRASKA AND FAR NORTHEAST COLORADO...

CITY           SKY/WX    TMP DP  RH WIND       PRES   REMARKS
WRAY           CLOUDY    55  21  26 NW28G37   29.86S
HOLYOKE        CLOUDY    59  21  23 NW13G23   29.82S
IMPERIAL       CLOUDY    53  30  41 N17       29.84R
OGALLALA       CLOUDY    53  31  43 NE7       29.79S
NORTH PLATTE   CLOUDY    57  34  41 NW21G36   29.79R
MCCOOK         CLOUDY    59  32  36 NW26G33   29.77R
LEXINGTON      DRIZZLE   58  43  57 N20G31    29.71R
PAXTON           N/A     55  36  49 NW14        N/A
SUTHERLAND       N/A     51  31  45 NW6         N/A
GOTHENBURG       N/A     57  41  56 N9G16       N/A
CALLAWAY         N/A     55  42  61 NW14        N/A
$$

...OBSERVATIONS IN NORTH CENTRAL NEBRASKA...

CITY           SKY/WX    TMP DP  RH WIND       PRES   REMARKS
VALENTINE      CLOUDY    51  37  58 NW14G22   29.78R
THEDFORD       CLOUDY    55  37  52 N15G21    29.78R
AINSWORTH      CLOUDY    54  38  56 NW18G24   29.75S
O`NEILL        CLOUDY    55  39  53 NW16G24   29.70R
ORD            LGT RAIN  53  47  79 NW16      29.68R
BROKEN BOW     LGT RAIN  54  41  61 N24G33    29.71R
BROWNLEE         N/A     54  39  57 N18         N/A
SPRINGVIEW       N/A     54  39  57 NW14G22     N/A
DUNNING          N/A     54  39  57 SE16        N/A
BREWSTER         N/A     55  39  54 S20         N/A
ROSE             N/A     54  43  65 W15         N/A
NEWPORT          N/A     55  38  54 W18         N/A
COMSTOCK         N/A     59  47  63 NW16        N/A
CHAMBERS         N/A     52  44  75 N9          N/A
EWING            N/A     55  49  82 NW5         N/A
$$

...SOME WEATHER OBSERVATIONS FROM AROUND THE REGION...

CITY           SKY/WX    TMP DP  RH WIND       PRES   REMARKS
DENVER         CLOUDY    42  37  82 NE9       29.91S
LARAMIE        PTCLDY    30   5  34 NW18      29.97R WCI  18
CHEYENNE       CLOUDY    41   4  21 NW22G32   29.94R
SCOTTSBLUFF    CLOUDY    49  31  49 N10       29.89R
RAPID CITY     CLOUDY    41  28  60 NW7       29.82R
PIERRE         MOCLDY    46  37  71 NW12      29.74S
WINNER         FAIR      53  38  56 NW13      29.75S
SIOUX FALLS    CLOUDY    47  40  76 E13       29.68F
OMAHA          CLOUDY    51  45  79 NW15      29.69R
GRAND ISLAND   RAIN      56  54  93 SE5       29.65R FOG
KANSAS CITY    MOCLDY    68  41  37 SE21G28   29.68F
WICHITA        MOCLDY    69  55  60 S26G37    29.60R
HAYS           CLOUDY    57  54  88 NW18      29.67R THUNDER
LIBERAL        FAIR      64  52  63 S13       29.63R
GOODLAND       CLOUDY    52  30  43 N31G39    29.83R
$$




U.S. Dept. of Commerce
NOAA National Weather Service
1325 East West Highway
Silver Spring, MD 20910
E-mail: w-nws.webmaster@noaa.gov
Page last modified: May 16, 2007
NATIONAL WEATHER SERVICE: for Safety, for Work, for Fun - FOR LIFE